OPS 4682 DEB, 51493

Orbit data source: Space-Track

OPS 4682 DEB, 51493 is space debris in LEO originally from a launch on Sat, 03 Apr 1965 UTC launched from the Air Force Western Test Range (AFWTR). Debris objects in space refer to the collection of defunct objects orbiting the Earth. Examples of debris include non-operational satellites, rocket bodies, and fragments generated from explosions, collisions, or faulty payload assembly.

Loading next visibility...
Identifier
51493, 1965-027GD
Orbit
LEO
Country
Flag of USUS
Related business
Manufacturer
Unknown
Mission
Spacecraft
Bus & Motor
Unknown
Mass
Unknown
Launch date (UTC)
1965-04-03 (61 years ago)
Launch vehicle
Unknown
Launch site
Air Force Western Test Range (AFWTR)
Object type
Payload
Rocket body
Debris
Shape & HBR
Unknown shape, 1.1 m
Radar Cross Section
Medium (>0.1 m² and <1 m²)

Expand to show TLE details & history
Last TLE update: 13 hours ago

TLE from 13 hours ago
0 OPS 4682 DEB
1 51493U 65027GD  26263.06094198  .00000381  00000-0  13178-2 0  9992
2 51493  90.2550  13.4395 0025797 294.0692  65.7729 12.95772638418922
Epoch: 2026-09-20T01:27Z
TLE epoch observation values (Epoch: 2026-09-20T01:27:45.387Z)
Latitude
Longitude
-7.46015°
Altitude
1,273.508 km
Speed
7.223 km/s
True Right ascension
00h 53m 45s
True Declination
0° 00' 00"
Sunlit
Object was in full shadow at epoch
Visualization orbit readout
Latitude
Unknown
Longitude
Unknown
Altitude
Unknown
Speed
Unknown
Apparent Right ascension
Unknown
Apparent Declination
Unknown
Sunlit
N/A
Visualization observer readout
Local Sidereal Time
06:58:53
Azimuth
Unknown
Elevation
Unknown
Doppler factor
Unknown
Orbital elements
Apogee altitude
1,295.573 km
Perigee altitude
1,256.083 km
Semi-major axis
7,653.965 km
Eccentricity
0.00258
Inclination
90.255°
RAAN
13.4395°
Arg. of periapsis
294.0692°
True anomaly
66.04283°
Mean anomaly
65.7729°
Eccentric anomaly
65.90783°
Mean motion
3.24126 °/min
Orbital period
111.07 mins
BSTAR
0.0013178
Loading maneuver chart data...
Computing Atmospheric mass density...
Loading historical data...
Loading historical data...
Loading historical data...
Loading historical data...
Loading historical data...
Loading historical data...
Loading historical data...

Documentation

Showing up to 5 results
|